FW5945 Weather Reports


time (UTC)temp
C
wind
direction
speed
KPH
gust
KPH
rain 1hr
cm
rain 24hr
cm
rain mn
cm
humidity
%
barometer
mb
20260906110320 21 251 1.6 4.8 0.00 0.00 0.00 92 1011.2
20260906105248 21 241 1.6 4.8 0.00 0.00 0.00 92 1011.2
20260906104246 21 255 3.2 3.2 0.00 0.00 0.00 91 1011.2
20260906103245 21 290 1.6 3.2 0.00 0.00 0.00 91 1011.2
20260906102244 21 268 1.6 3.2 0.00 0.00 0.00 91 1011.2
20260906101243 21 255 1.6 4.8 0.00 0.00 0.00 91 1011.2
20260906100242 21 245 3.2 4.8 0.00 0.00 0.00 91 1011.2
20260906095240 21 294 1.6 4.8 0.00 0.00 0.00 91 1011.2
20260906094240 21 265 1.6 4.8 0.00 0.00 0.00 91 1010.8
20260906093238 21 261 1.6 4.8 0.00 0.00 0.00 91 1010.8
20260906092237 22 255 3.2 4.8 0.00 0.00 0.00 91 1010.8
20260906091236 22 256 3.2 6.4 0.00 0.00 0.00 91 1010.8
20260906090234 22 210 3.2 6.4 0.00 0.00 0.00 91 1010.8
20260906085233 22 255 1.6 3.2 0.00 0.00 0.00 90 1010.8
20260906084232 22 272 1.6 3.2 0.00 0.00 0.00 90 1010.8
20260906083231 22 271 1.6 3.2 0.00 0.00 0.00 90 1010.5
20260906082158 22 277 1.6 4.8 0.00 0.00 0.00 90 1010.8
20260906081158 22 300 3.2 6.4 0.00 0.00 0.00 90 1010.8
20260906080156 22 296 1.6 6.4 0.00 0.00 0.00 90 1010.8
20260906075155 22 311 3.2 6.4 0.00 0.00 0.00 90 1010.8
20260906074154 22 311 1.6 3.2 0.00 0.00 0.00 90 1010.8
20260906073152 22 86 0.0 4.8 0.00 0.00 0.00 90 1010.8
20260906072151 22 71 1.6 6.4 0.00 0.00 0.00 90 1010.8
20260906071150 22 63 1.6 6.4 0.00 0.00 0.00 90 1010.8
20260906065912 22 61 3.2 6.4 0.00 0.00 0.00 91 1011.2
20260906064910 22 84 4.8 6.4 0.00 0.00 0.00 91 1011.2
20260906063908 22 64 0.0 6.4 0.00 0.00 0.00 90 1011.2
20260906062907 22 65 3.2 4.8 0.00 0.00 0.00 90 1011.2
20260906061906 22 307 3.2 4.8 0.00 0.00 0.00 90 1011.2
20260906060904 22 315 3.2 4.8 0.00 0.00 0.00 90 1011.2
20260906055904 22 256 1.6 4.8 0.00 0.00 0.00 90 1011.2
20260906054902 22 246 3.2 11.3 0.00 0.00 0.00 90 1011.5
20260906053827 22 227 6.4 11.3 0.00 0.00 0.00 90 1011.5
20260906052827 22 313 3.2 6.4 0.00 0.00 0.00 90 1011.5
20260906051825 22 320 3.2 6.4 0.00 0.00 0.00 90 1011.2
20260906050823 22 333 4.8 8.0 0.00 0.00 0.00 90 1011.2
20260906045822 22 318 1.6 8.0 0.00 0.00 0.00 90 1011.5
20260906044820 22 342 3.2 4.8 0.00 0.00 0.00 89 1011.5
20260906043819 22 307 3.2 6.4 0.00 0.00 0.00 89 1011.5
20260906042819 22 318 3.2 6.4 0.00 0.00 0.00 89 1011.9
20260906041817 22 323 4.8 6.4 0.00 0.00 0.00 89 1011.9
20260906040817 22 317 3.2 8.0 0.00 0.00 0.00 89 1011.9
20260906035815 22 321 6.4 8.0 0.00 0.00 0.00 89 1011.9
20260906034814 22 312 1.6 4.8 0.00 0.00 0.00 89 1011.9
20260906033812 22 312 3.2 6.4 0.00 0.00 0.00 89 1011.9
20260906032811 22 292 3.2 9.7 0.00 0.00 0.00 89 1012.2
20260906031810 22 252 4.8 6.4 0.00 0.00 0.00 89 1012.2
20260906030809 22 259 1.6 4.8 0.00 0.00 0.00 89 1012.2
20260906025635 22 295 1.6 4.8 0.00 0.00 0.00 89 1012.2
20260906024633 22 257 3.2 6.4 0.00 0.00 0.00 89 1012.2
20260906023631 22 309 3.2 8.0 0.00 0.00 0.00 89 1012.2
20260906022629 22 266 3.2 8.0 0.00 0.00 0.00 89 1011.9
20260906021557 22 314 4.8 8.0 0.00 0.00 0.00 89 1011.5
20260906020453 22 340 3.2 8.0 0.00 0.00 0.00 89 1011.5
20260906015451 23 314 3.2 8.0 0.00 0.00 0.00 88 1011.5
20260906014419 23 320 3.2 6.4 0.00 0.00 0.00 88 1011.2
20260906013417 23 324 3.2 8.0 0.00 0.00 0.00 88 1011.2
20260906012415 23 294 3.2 8.0 0.00 0.00 0.00 87 1010.8
20260906011414 23 2 3.2 9.7 0.00 0.00 0.00 87 1011.2
20260906010412 23 316 8.0 14.5 0.00 0.00 0.00 87 1011.2
20260906005411 23 250 6.4 14.5 0.00 0.00 0.00 87 1010.8
20260906004410 23 203 4.8 9.7 0.00 0.00 0.00 86 1010.5
20260906003409 23 301 3.2 12.9 0.00 0.00 0.00 86 1010.5
20260906002408 23 128 3.2 12.9 0.00 0.00 0.00 85 1010.5
20260906001406 24 145 3.2 9.7 0.00 0.00 0.00 84 1010.8
20260906000333 24 92 3.2 11.3 0.00 0.00 0.00 83 1011.2
20260905235331 24 123 3.2 11.3 0.00 0.00 0.00 80 1011.2
20260905234329 24 155 3.2 19.3 0.00 0.00 0.00 80 1011.9
20260905233328 24 64 3.2 19.3 0.00 0.00 0.00 80 1011.5
20260905232327 25 81 8.0 16.1 0.00 0.00 0.00 77 1012.2
20260905231326 25 323 3.2 33.8 0.00 0.00 0.00 75 1012.5
20260905230325 26 329 9.7 40.2 0.00 0.00 0.00 72 1012.9
20260905225324 29 342 17.7 45.1 0.00 0.00 0.00 62 1013.2
20260905224323 32 10 16.1 45.1 0.00 0.00 0.00 57 1012.5
20260905223321 35 269 6.4 12.9 0.00 0.00 0.00 54 1010.5
20260905222319 35 219 8.0 12.9 0.00 0.00 0.00 54 1009.8
20260905221318 36 235 8.0 14.5 0.00 0.00 0.00 53 1010.2
20260905220316 36 220 8.0 20.9 0.00 0.00 0.00 51 1010.2
20260905215243 36 218 11.3 20.9 0.00 0.00 0.00 50 1009.5
20260905214242 37 223 12.9 17.7 0.00 0.00 0.00 48 1009.5
20260905213208 37 157 3.2 11.3 0.00 0.00 0.00 48 1009.5
20260905212207 37 198 8.0 14.5 0.00 0.00 0.00 48 1009.5
20260905211102 37 255 6.4 14.5 0.00 0.00 0.00 49 1009.8
20260905210101 37 190 3.2 22.5 0.00 0.00 0.00 50 1009.8
20260905205059 37 204 14.5 22.5 0.00 0.00 0.00 48 1009.5
20260905204058 37 222 4.8 12.9 0.00 0.00 0.00 47 1009.5
20260905203057 37 239 8.0 12.9 0.00 0.00 0.00 46 1009.8
20260905202056 37 286 1.6 14.5 0.00 0.00 0.00 46 1009.5
20260905201055 38 259 8.0 12.9 0.00 0.00 0.00 45 1009.8
20260905195950 38 210 3.2 9.7 0.00 0.00 0.00 46 1009.8
20260905194917 37 101 3.2 9.7 0.00 0.00 0.00 46 1009.8
20260905193916 37 61 4.8 9.7 0.00 0.00 0.00 47 1010.2
20260905192916 37 56 4.8 9.7 0.00 0.00 0.00 47 1010.2
20260905191741 37 205 6.4 16.1 0.00 0.00 0.00 48 1010.5
20260905190739 37 65 9.7 16.1 0.00 0.00 0.00 50 1010.8
20260905185737 37 70 3.2 12.9 0.00 0.00 0.00 49 1010.8
20260905184704 37 105 8.0 14.5 0.00 0.00 0.00 49 1011.2
20260905183631 36 72 3.2 14.5 0.00 0.00 0.00 52 1011.2
20260905182630 36 110 4.8 12.9 0.00 0.00 0.00 53 1011.2
20260905181628 37 151 4.8 14.5 0.00 0.00 0.00 52 1011.5
20260905180627 36 210 6.4 16.1 0.00 0.00 0.00 53 1011.9
20260905175626 36 282 9.7 16.1 0.00 0.00 0.00 54 1011.9
20260905174625 36 216 6.4 11.3 0.00 0.00 0.00 53 1011.9
20260905173623 35 277 3.2 19.3 0.00 0.00 0.00 56 1011.9
20260905172551 35 269 9.7 19.3 0.00 0.00 0.00 58 1012.2
20260905171549 35 202 11.3 17.7 0.00 0.00 0.00 58 1012.2
20260905170548 34 188 3.2 16.1 0.00 0.00 0.00 58 1012.5
20260905165546 34 274 6.4 14.5 0.00 0.00 0.00 59 1012.5
20260905164545 34 173 6.4 16.1 0.00 0.00 0.00 59 1012.9
20260905163544 33 105 4.8 17.7 0.00 0.00 0.00 62 1012.9
20260905162543 33 197 8.0 24.1 0.00 0.00 0.00 63 1013.2
20260905161541 33 222 14.5 24.1 0.00 0.00 0.00 64 1013.2
20260905160540 32 251 8.0 17.7 0.00 0.00 0.00 66 1013.5
20260905155538 32 229 6.4 17.7 0.00 0.00 0.00 66 1013.5
20260905154536 32 231 3.2 12.9 0.00 0.00 0.00 67 1013.9
20260905153535 31 242 4.8 12.9 0.00 0.00 0.00 70 1013.9
20260905152533 31 283 4.8 16.1 0.00 0.00 0.00 72 1013.9
20260905151428 30 267 9.7 19.3 0.00 0.00 0.00 72 1013.9
20260905150427 30 231 4.8 19.3 0.00 0.00 0.00 74 1014.2
20260905145426 30 230 11.3 20.9 0.00 0.00 0.00 75 1014.2
20260905144355 29 239 9.7 17.7 0.00 0.00 0.00 76 1014.2
20260905143322 29 275 8.0 16.1 0.00 0.00 0.00 78 1014.2
20260905142250 28 209 8.0 19.3 0.00 0.00 0.00 79 1014.2
20260905141249 28 237 11.3 19.3 0.00 0.00 0.00 80 1014.2
20260905140247 27 252 4.8 14.5 0.00 0.00 0.00 82 1014.6
20260905135247 27 263 8.0 12.9 0.00 0.00 0.00 85 1014.6
20260905134246 26 226 1.6 12.9 0.00 0.00 0.00 88 1014.6
20260905133111 26 263 4.8 14.5 0.00 0.00 0.00 89 1014.6
20260905132110 25 252 9.7 14.5 0.00 0.00 0.00 91 1014.6
20260905131109 25 283 4.8 12.9 0.00 0.00 0.00 93 1014.6
20260905130036 25 269 3.2 12.9 0.00 0.00 0.00 93 1014.6
20260905125035 25 288 4.8 11.3 0.00 0.00 0.00 93 1014.9
20260905124034 25 272 6.4 11.3 0.00 0.00 0.00 94 1014.6
20260905123033 25 257 6.4 9.7 0.00 0.00 0.00 94 1014.6
20260905122031 24 265 4.8 12.9 0.00 0.00 0.00 94 1014.2
20260905121029 24 261 4.8 14.5 0.00 0.00 0.00 94 1014.6
20260905115925 24 265 6.4 14.5 0.00 0.00 0.00 94 1014.2
20260905114924 24 243 4.8 16.1 0.00 0.00 0.00 94 1014.2
20260905113922 24 241 6.4 16.1 0.00 0.00 0.00 94 1014.2
20260905112850 24 265 6.4 11.3 0.00 0.00 0.00 94 1013.9
20260905111849 24 259 4.8 11.3 0.00 0.00 0.00 94 1013.9
20260905110847 24 249 3.2 9.7 0.00 0.00 0.00 94 1013.9